Location: Newark
(36.7344°N, 137.0547°E)
Time: 20:06:02
(UTC+00:00)

Envisat - Pass Details

Date: 18 October 2019
Orbit: 764 x 766 km, 98.1° (Epoch: 11 November)

Event Time Altitude Azimuth Distance (km) Brightness Sun altitude
Rises 10:20:38 0° 213° (SSW) 3,219 6.5 -26.4°
Reaches altitude 10° 10:24:08 10° 239° (WSW) 2,298 6.1 -27.1°
Maximum altitude 10:26:39 14° 269° (W) 2,051 6.1 -27.6°
Drops below altitude 10° 10:29:11 10° 299° (WNW) 2,306 6.3 -28.1°
Sets 10:32:44 0° 325° (NW) 3,237 6.9 -28.8°
